Location: Unspecified
(0.0000°N, 0.0000°E)
Time: 19:12:07
(UTC+00:00)

SR - Visible Passes

Search period start: 28 August 2015 00:00
Search period end: 07 September 2015 00:00
Orbit: 579 x 881 km, 66.7° (Epoch: 27 August)

Date Brightness Start Highest point End Pass type
(mag) Time Alt. Az. Time Alt. Az. Time Alt. Az.
28 Aug ? 19:22:58 10° NNE 19:23:49 12° NE 19:23:49 12° NE visible
28 Aug ? 21:02:57 10° NW 21:03:21 12° NW 21:03:21 12° NW visible
29 Aug ? 20:13:35 10° NNW 20:16:37 32° NNW 20:16:37 32° NNW visible
30 Aug ? 19:25:10 10° N 19:30:03 36° ENE 19:30:03 36° ENE visible
30 Aug ? 21:08:32 10° WNW 21:09:36 13° WNW 21:09:36 13° WNW visible
31 Aug ? 18:38:07 10° NNE 18:41:22 16° ENE 18:43:40 13° E visible
31 Aug ? 20:17:58 10° NW 20:23:13 42° WSW 20:23:13 42° WSW visible
01 Sep ? 19:28:38 10° NNW 19:34:32 84° ENE 19:37:02 37° SSE visible
02 Sep ? 18:40:15 10° N 18:45:32 36° ENE 18:50:55 10° SE visible
02 Sep ? 20:23:29 10° WNW 20:27:39 19° WSW 20:30:39 13° SW visible
03 Sep ? 19:32:58 10° NW 19:38:34 43° WSW 19:44:03 10° S visible
04 Sep ? 18:43:40 10° NNW 18:49:35 81° ENE 18:55:27 10° SSE visible
05 Sep ? 19:38:26 10° WNW 19:42:41 19° WSW 19:46:35 10° SSW visible
06 Sep ? 18:47:59 10° NW 18:53:36 45° WSW 18:59:06 10° S visible
